Weather History for KONZ - January, 2014

Change the Weather History Date:

Friday, January 17, 2014

  Actual Average (KDTW) Record (KDTW)
Temperature  
Mean Temperature 24 °F 25 °F  
Max Temperature 32 °F 32 °F 63 °F (1952)
Min Temperature 17 °F 19 °F -15 °F (1982)
Degree Days  
Heating Degree Days 40 40  
Month to date heating degree days 670  
Since 1 July heating degree days 2967  
Cooling Degree Days 0 0  
Month to date cooling degree days 0  
Year to date cooling degree days 0  
Moisture  
Dew Point 20 °F    
Average Humidity 76    
Maximum Humidity 93    
Minimum Humidity 64    
Precipitation  
Precipitation 0.00 in 0.06 in 1.28 in (2012)
Month to date precipitation 1.13  
Year to date precipitation 1.13  
Snow  
Snow 0.00 in 0.50 in 4.60 in (2009)
Month to date snowfall 7.0  
Since 1 July snowfall 18.2  
Snow Depth -    
Sea Level Pressure  
Sea Level Pressure 29.76 in    
Wind  
Wind Speed 10 mph (SW)    
Max Wind Speed 18 mph    
Max Gust Speed 23 mph    
Visibility 8 miles    
Events Snow    
T = Trace of Precipitation, MM = Missing Value Source: NWS Daily Summary

Daily Weather History Graph

Daily Weather History Graph

Search for Another Location

Airport or City:

Trip Planner

Search our weather history database for the weather conditions in past years. The results will help you decide how hot, cold, wet, or windy it might be!

Date:

Astronomy

Jan. 17, 2014 Rise Set
Actual Time 7:57 AM EST 5:28 PM EST
Civil Twilight 7:26 AM EST 5:59 PM EST
Nautical Twilight 6:52 AM EST 6:33 PM EST
Astronomical Twilight 6:18 AM EST 7:07 PM EST
Moon 7:16 PM EST (1/17) 8:22 AM EST (1/17)
Length of Visible Light 10h 32m
Length of Day
9h 31m
Full, 98% of the Moon is Illuminated
Jan 17
Full
Jan 24
Last Quarter
Jan 30
New
Feb 6
First Quarter
Feb 14
Full

Hourly Weather History & Observations

Time (EST) Temp. Windchill Dew Point Humidity Pressure Visibility Wind Dir Wind Speed Gust Speed Precip Events Conditions
12:14 AM 28.4 °F 16.6 °F 26.6 °F 93% 29.63 in 3.0 mi SSW 16.1 mph - N/A Snow Light Snow
12:34 AM 28.4 °F 18.0 °F 26.6 °F 93% 29.63 in 4.0 mi SSW 12.7 mph - N/A Snow Light Snow
12:54 AM 28.4 °F 19.1 °F 26.6 °F 93% 29.62 in 2.5 mi SSW 10.4 mph - N/A Snow Light Snow
1:14 AM 28.4 °F 18.0 °F 26.6 °F 93% 29.62 in 2.5 mi SSW 12.7 mph - N/A Snow Light Snow
1:34 AM 28.4 °F 17.5 °F 26.6 °F 93% 29.62 in 1.5 mi SSW 13.8 mph - N/A Snow Light Snow
1:54 AM 28.4 °F 18.5 °F 26.6 °F 93% 29.63 in 2.5 mi SSW 11.5 mph - N/A Snow Light Snow
2:14 AM 28.4 °F 18.5 °F 26.6 °F 93% 29.63 in 5.0 mi SSW 11.5 mph - N/A Snow Light Snow
2:35 AM 30.2 °F 21.3 °F 26.6 °F 86% 29.64 in 10.0 mi SSW 10.4 mph - N/A   Overcast
2:54 AM 30.2 °F 20.2 °F 26.6 °F 86% 29.64 in 10.0 mi SW 12.7 mph - N/A   Overcast
3:14 AM 30.2 °F 21.3 °F 26.6 °F 86% 29.64 in 10.0 mi SSW 10.4 mph - N/A   Overcast
3:35 AM 30.2 °F 21.3 °F 24.8 °F 80% 29.65 in 10.0 mi SSW 10.4 mph - N/A   Overcast
3:54 AM 30.2 °F 19.3 °F 24.8 °F 80% 29.66 in 10.0 mi SW 15.0 mph 21.9 mph N/A   Overcast
4:14 AM 30.2 °F 20.2 °F 23.0 °F 75% 29.66 in 10.0 mi SW 12.7 mph 19.6 mph N/A Snow Light Snow
4:35 AM 28.4 °F 18.5 °F 21.2 °F 74% 29.67 in 10.0 mi SW 11.5 mph 17.3 mph N/A Snow Light Snow
4:54 AM 28.4 °F 19.7 °F 21.2 °F 74% 29.67 in 7.0 mi SW 9.2 mph 20.7 mph N/A Snow Light Snow
5:14 AM 28.4 °F 17.5 °F 21.2 °F 74% 29.68 in 10.0 mi SW 13.8 mph 18.4 mph N/A   Overcast
5:34 AM 28.4 °F 18.5 °F 19.4 °F 69% 29.69 in 10.0 mi WSW 11.5 mph 17.3 mph N/A   Overcast
5:54 AM 26.6 °F 15.2 °F 19.4 °F 74% 29.70 in 10.0 mi SW 13.8 mph 19.6 mph N/A   Mostly Cloudy
6:14 AM 26.6 °F 16.8 °F 17.6 °F 69% 29.71 in 10.0 mi SW 10.4 mph 18.4 mph N/A   Mostly Cloudy
6:34 AM 24.8 °F 14.0 °F 17.6 °F 74% 29.71 in 10.0 mi WSW 11.5 mph 16.1 mph N/A   Scattered Clouds
6:55 AM 24.8 °F 15.3 °F 15.8 °F 69% 29.72 in 10.0 mi WSW 9.2 mph - N/A   Clear
7:14 AM 24.8 °F 15.3 °F 15.8 °F 69% 29.73 in 10.0 mi SW 9.2 mph - N/A   Clear
7:34 AM 23.0 °F 15.8 °F 15.8 °F 74% 29.73 in 10.0 mi SW 5.8 mph - N/A   Clear
7:54 AM 23.0 °F 14.7 °F 15.8 °F 74% 29.74 in 10.0 mi SW 6.9 mph - N/A   Scattered Clouds
8:14 AM 23.0 °F 15.8 °F 15.8 °F 74% 29.74 in 10.0 mi WSW 5.8 mph - N/A   Overcast
8:34 AM 23.0 °F 15.8 °F 15.8 °F 74% 29.75 in 10.0 mi SW 5.8 mph - N/A   Overcast
8:54 AM 24.8 °F 20.5 °F 15.8 °F 69% 29.75 in 10.0 mi SW 3.5 mph - N/A   Overcast
9:14 AM 24.8 °F - 15.8 °F 69% 29.75 in 10.0 mi Calm Calm - N/A   Mostly Cloudy
9:34 AM 24.8 °F - 15.8 °F 69% 29.76 in 10.0 mi Calm Calm - N/A   Mostly Cloudy
9:54 AM 24.8 °F 16.9 °F 17.6 °F 74% 29.78 in 10.0 mi SW 6.9 mph - N/A   Overcast
10:14 AM 24.8 °F 17.9 °F 17.6 °F 74% 29.78 in 10.0 mi SSW 5.8 mph - N/A   Overcast
10:34 AM 26.6 °F 20.0 °F 17.6 °F 69% 29.78 in 10.0 mi SSW 5.8 mph - N/A   Overcast
10:54 AM 26.6 °F 21.2 °F 17.6 °F 69% 29.78 in 10.0 mi SW 4.6 mph - N/A   Overcast
11:14 AM 26.6 °F 20.0 °F 17.6 °F 69% 29.78 in 10.0 mi WSW 5.8 mph - N/A   Overcast
11:35 AM 26.6 °F - 17.6 °F 69% 29.78 in 10.0 mi Calm Calm - N/A   Overcast
11:54 AM 28.4 °F - 17.6 °F 64% 29.77 in 10.0 mi Calm Calm - N/A   Overcast
12:14 PM 28.4 °F - 19.4 °F 69% 29.77 in 10.0 mi Calm Calm - N/A   Overcast
12:35 PM 28.4 °F - 19.4 °F 69% 29.76 in 10.0 mi Calm Calm - N/A   Overcast
12:54 PM 30.2 °F - 19.4 °F 64% 29.75 in 10.0 mi Calm Calm - N/A   Overcast
1:14 PM 30.2 °F 26.7 °F 19.4 °F 64% 29.75 in 10.0 mi SW 3.5 mph - N/A   Overcast
1:35 PM 30.2 °F 26.7 °F 21.2 °F 69% 29.75 in 10.0 mi South 3.5 mph - N/A   Overcast
1:54 PM 30.2 °F 25.4 °F 21.2 °F 69% 29.75 in 10.0 mi SSE 4.6 mph - N/A   Overcast
2:14 PM 30.2 °F - 21.2 °F 69% 29.74 in 10.0 mi Calm Calm - N/A   Overcast
2:34 PM 30.2 °F 26.7 °F 21.2 °F 69% 29.74 in 10.0 mi South 3.5 mph - N/A   Overcast
2:54 PM 30.2 °F - 21.2 °F 69% 29.74 in 10.0 mi Calm Calm - N/A   Scattered Clouds
3:14 PM 32.0 °F 28.7 °F 21.2 °F 64% 29.75 in 10.0 mi West 3.5 mph - N/A   Mostly Cloudy
3:34 PM 30.2 °F 25.4 °F 21.2 °F 69% 29.75 in 10.0 mi WSW 4.6 mph - N/A   Overcast
3:54 PM 30.2 °F 24.3 °F 21.2 °F 69% 29.76 in 10.0 mi SW 5.8 mph - N/A   Overcast
4:14 PM 30.2 °F 24.3 °F 21.2 °F 69% 29.77 in 10.0 mi WSW 5.8 mph - N/A   Overcast
4:34 PM 30.2 °F 23.4 °F 21.2 °F 69% 29.78 in 10.0 mi WSW 6.9 mph - N/A   Overcast
4:54 PM 30.2 °F 23.4 °F 21.2 °F 69% 29.78 in 10.0 mi WSW 6.9 mph - N/A   Overcast
5:14 PM 28.4 °F 19.7 °F 21.2 °F 74% 29.79 in 10.0 mi WSW 9.2 mph - N/A   Overcast
5:34 PM 28.4 °F 19.1 °F 21.2 °F 74% 29.80 in 10.0 mi WSW 10.4 mph - N/A Snow Light Snow
5:54 PM 28.4 °F 19.1 °F 23.0 °F 80% 29.81 in 5.0 mi WSW 10.4 mph - N/A Snow Light Snow
6:14 PM 28.4 °F 19.7 °F 23.0 °F 80% 29.81 in 5.0 mi WSW 9.2 mph - N/A Snow Light Snow
6:34 PM 28.4 °F 19.7 °F 23.0 °F 80% 29.82 in 5.0 mi WSW 9.2 mph - N/A Snow Light Snow
6:54 PM 28.4 °F 19.1 °F 21.2 °F 74% 29.84 in 7.0 mi WSW 10.4 mph - N/A Snow Light Snow
7:14 PM 26.6 °F 17.5 °F 21.2 °F 80% 29.84 in 7.0 mi WSW 9.2 mph - N/A Snow Light Snow
7:34 PM 26.6 °F 17.5 °F 21.2 °F 80% 29.85 in 4.0 mi WSW 9.2 mph - N/A Snow Light Snow
7:55 PM 24.8 °F 14.6 °F 21.2 °F 86% 29.86 in 4.0 mi West 10.4 mph - N/A Snow Light Snow
8:14 PM 24.8 °F 15.3 °F 19.4 °F 80% 29.87 in 3.0 mi WSW 9.2 mph 16.1 mph N/A Snow Light Snow
8:34 PM 24.8 °F 13.4 °F 19.4 °F 80% 29.86 in 5.0 mi SW 12.7 mph - N/A Snow Light Snow
8:54 PM 23.0 °F 11.1 °F 17.6 °F 80% 29.87 in 7.0 mi WSW 12.7 mph 16.1 mph N/A Snow Light Snow
9:14 PM 21.2 °F 8.3 °F 17.6 °F 86% 29.87 in 10.0 mi SW 13.8 mph 18.4 mph N/A   Overcast
9:34 PM 21.2 °F 8.9 °F 15.8 °F 80% 29.88 in 7.0 mi SW 12.7 mph 19.6 mph N/A   Overcast
9:54 PM 19.4 °F 4.1 °F 15.8 °F 86% 29.88 in 7.0 mi WSW 18.4 mph - N/A Snow Light Snow
10:15 PM 19.4 °F 5.5 °F 15.8 °F 86% 29.89 in 7.0 mi WSW 15.0 mph - N/A Snow Light Snow
10:34 PM 19.4 °F 4.5 °F 14.0 °F 80% 29.90 in 7.0 mi WSW 17.3 mph 23.0 mph N/A Snow Light Snow
10:54 PM 19.4 °F 5.5 °F 12.2 °F 74% 29.90 in 10.0 mi WSW 15.0 mph 20.7 mph N/A Snow Light Snow
11:15 PM 17.6 °F 5.7 °F 12.2 °F 79% 29.90 in 10.0 mi West 10.4 mph 18.4 mph N/A Snow Light Snow
11:34 PM 17.6 °F 3.7 °F 12.2 °F 79% 29.90 in 10.0 mi WSW 13.8 mph 17.3 mph N/A   Overcast
11:54 PM 17.6 °F 4.3 °F 12.2 °F 79% 29.90 in 10.0 mi WSW 12.7 mph 18.4 mph N/A   Overcast